Theta_e
317 319 319 318 318 318 319 319 320 321 322 321 320 316 315 313 313 314 315 314 314 315 316 316 317 317 318 318 317 318 313 315 315 313 315 314 313 312 312 310 310 310 308 309 306
315 316 318 319 318 318 318 318 319 320 321 322 320 317 316 314 314 315 315 315 314 315 315 316 316 317 318 318 318 316 313 316 313 312 313 313 313 313 311 307 304 306 307 306 305
313 315 316 317 318 318 317 317 317 317 318 320 321 319 317 317 316 314 314 313 314 314 316 316 315 316 317 318 316 314 311 314 314 314 314 313 312 312 309 307 307 307 306 304 304
312 312 314 315 316 317 316 316 316 316 316 317 320 320 317 317 319 314 313 312 313 314 318 317 317 315 314 314 316 316 314 314 314 314 313 312 312 311 311 312 312 311 309 305 304
310 311 311 312 313 315 315 315 315 315 315 315 316 319 318 318 318 314 313 313 312 314 320 318 317 313 313 313 315 314 314 314 314 313 313 313 311 310 310 312 311 309 305 305 304
311 310 310 311 312 312 313 314 314 314 314 315 316 318 317 316 319 315 313 312 312 314 319 317 316 314 314 315 313 313 313 313 313 313 312 311 310 311 308 308 307 306 304 303 303
312 311 309 309 310 311 311 312 313 313 313 314 316 318 318 318 318 318 314 311 312 313 318 317 316 314 314 313 313 313 311 310 311 311 311 311 309 308 309 306 305 304 303 302 302
312 311 310 309 309 309 310 311 312 313 313 315 317 317 317 318 318 317 313 311 312 313 317 317 316 313 312 313 312 312 311 313 312 310 311 310 311 310 310 306 303 303 302 301 301
311 310 309 309 308 308 309 310 311 312 313 316 317 317 317 317 317 316 312 311 312 313 316 316 316 313 312 310 310 307 312 312 310 309 310 308 309 308 307 305 302 301 301 300 300
311 310 309 308 308 308 309 310 311 313 316 317 317 317 316 317 316 315 312 312 312 312 316 316 314 310 308 310 315 314 310 307 306 309 309 309 308 307 306 304 303 302 300 300 298
310 309 308 307 307 308 309 310 313 314 317 316 314 317 316 317 317 316 316 315 312 314 316 314 313 313 314 309 310 309 308 306 305 308 310 308 309 310 307 303 302 301 300 300 297
308 308 308 307 307 308 310 313 314 312 313 312 313 314 314 315 315 315 314 313 312 312 312 313 315 313 311 308 309 308 309 307 306 306 306 306 306 306 306 304 304 302 300 300 297
306 307 307 307 307 307 311 313 314 314 311 311 314 315 315 314 315 314 313 312 312 313 312 314 315 310 310 309 309 307 308 307 308 304 303 302 301 304 305 304 305 304 302 301 299
305 306 307 307 306 309 312 312 313 314 304 307 312 314 315 314 312 313 311 312 312 313 311 312 310 309 308 309 307 309 306 307 306 305 305 303 308 304 303 303 299 302 300 299 296
304 305 306 306 308 311 311 311 312 314 305 309 313 313 312 311 311 311 310 312 313 312 312 315 308 307 307 308 306 309 305 305 305 304 303 303 303 302 301 302 303 297 298 297 296
303 304 305 307 307 309 311 310 312 308 308 310 312 310 311 311 311 311 310 311 310 310 308 310 308 305 307 306 306 305 305 304 299 301 304 304 304 303 301 302 301 297 297 296 296
303 303 305 306 308 310 311 308 306 306 307 310 313 310 310 310 310 309 309 309 311 313 312 310 307 306 307 308 306 305 305 309 310 304 310 300 300 308 306 303 301 297 295 295 296
308 305 306 306 308 309 307 307 308 305 306 311 312 311 312 310 310 309 310 310 308 312 309 314 314 306 305 306 308 304 306 311 309 308 311 301 305 306 300 297 296 297 299 295 294
312 309 313 305 308 313 307 305 309 308 307 312 312 312 311 311 312 309 307 309 309 309 314 310 310 301 302 302 304 304 303 303 305 286 296 305 301 302 296 294 292 296 296 293 294
311 310 311 307 309 313 305 309 307 307 309 311 311 311 312 312 310 309 309 308 310 307 310 311 313 301 298 300 297 302 300 303 299 302 302 305 305 309 304 299 291 291 291 292 293
310 310 309 308 310 312 312 309 306 309 311 311 310 308 310 311 310 308 311 309 307 306 306 305 309 303 299 300 302 298 300 299 300 304 306 304 310 303 305 301 292 292 292 292 292
311 310 308 310 311 309 310 305 307 306 308 308 308 310 310 311 310 309 309 311 309 304 307 303 305 306 301 296 296 300 302 302 305 303 299 302 311 298 298 298 293 293 293 293 293
311 309 308 311 310 309 303 305 307 305 307 307 308 309 308 309 311 308 310 309 308 305 305 303 305 304 307 301 295 296 297 300 299 300 307 306 310 296 297 296 294 293 293 293 293
311 308 308 308 309 307 307 308 307 307 306 306 306 307 308 309 310 310 309 307 305 305 306 306 305 308 311 309 299 298 296 297 302 305 308 308 308 308 305 301 293 294 294 293 293
311 309 308 309 309 310 306 307 307 308 306 306 306 307 308 308 308 309 309 305 300 301 303 304 309 304 309 310 303 305 307 296 299 303 307 309 308 308 308 307 305 306 296 292 291
313 312 307 307 307 308 309 309 307 307 306 307 307 306 307 308 307 308 309 308 308 298 298 297 306 304 307 306 303 306 307 307 303 304 305 305 306 307 308 307 305 300 293 290 290
315 313 312 310 308 308 308 307 308 308 307 307 307 307 306 307 308 308 307 308 307 305 297 296 299 300 310 306 305 308 308 307 308 308 307 308 307 307 306 301 297 297 294 292 290
Wind_Speed
11 12 13 15 16 16 17 18 19 20 19 19 16 6 8 8 8 5 9 10 11 11 11 9 8 5 2 3 3 1 4 1 3 6 3 2 2 2 3 10 6 8 12 10 24
8 10 11 13 14 15 16 17 17 17 18 17 15 6 2 3 4 6 8 9 10 11 11 11 11 7 3 3 2 4 3 4 1 4 4 5 5 8 5 6 4 10 14 21 20
8 9 9 10 12 13 14 16 17 17 17 16 13 8 0 1 2 0 5 7 9 10 11 11 12 6 2 2 4 1 2 3 2 3 4 3 3 7 9 5 16 23 26 24 21
10 11 11 11 11 12 13 14 15 17 17 15 12 6 1 2 3 5 2 4 7 9 12 10 10 4 3 3 3 2 2 2 5 4 3 3 4 6 19 10 10 21 25 26 22
12 13 13 13 12 13 12 12 13 15 16 15 12 5 2 4 6 8 5 2 4 6 11 10 12 6 2 3 5 1 2 2 4 6 7 7 9 8 19 20 14 25 26 24 21
14 14 15 16 16 14 14 13 13 14 14 14 13 7 5 5 6 9 7 4 3 4 8 7 7 5 2 1 1 4 5 8 7 7 6 5 3 4 7 12 21 27 27 24 21
15 15 16 17 18 18 17 15 14 15 14 14 12 8 8 9 8 9 9 6 4 3 5 4 6 2 1 2 5 5 6 7 5 4 3 5 6 11 11 22 27 28 27 24 21
16 17 17 18 19 20 18 17 16 16 15 14 9 8 6 8 9 9 9 7 5 3 3 2 4 2 1 1 5 4 3 5 3 3 1 5 8 5 18 29 32 31 30 28 25
18 17 18 18 19 20 19 17 16 16 15 8 8 7 5 6 9 10 10 7 6 5 3 2 0 2 1 4 4 6 4 3 9 7 2 5 9 4 16 31 26 34 33 30 27
18 18 18 18 18 19 18 17 15 12 8 7 8 5 8 5 7 10 12 9 7 5 2 1 2 3 3 4 3 4 5 5 6 3 2 5 16 6 17 29 29 35 36 33 32
19 19 17 17 18 17 18 15 5 5 7 8 6 8 3 8 7 8 10 10 8 5 3 1 3 5 8 7 4 3 4 8 5 4 4 8 13 22 17 25 24 30 37 40 37
22 19 17 15 15 14 12 7 4 5 11 17 21 20 21 14 7 10 11 9 7 6 5 3 6 5 2 5 4 4 4 8 9 2 7 11 12 14 12 15 34 36 39 43 39
24 20 17 14 13 11 8 5 6 8 5 8 10 7 6 12 8 10 14 8 5 6 6 7 3 6 4 3 4 5 5 5 8 6 5 8 6 10 4 14 19 31 40 46 48
24 23 18 13 10 8 6 4 6 8 3 7 4 3 6 6 3 10 13 7 3 9 7 6 1 6 4 6 7 5 5 3 4 3 4 4 8 5 7 13 7 22 35 44 45
23 22 18 14 6 5 5 6 5 3 4 4 2 4 6 5 4 6 9 7 5 6 6 6 8 5 6 7 8 8 2 3 3 4 4 4 4 6 2 9 19 12 33 38 46
23 21 19 14 13 11 8 6 2 4 7 3 5 5 4 4 2 5 4 4 3 3 2 6 1 5 6 2 3 4 2 2 4 2 2 6 9 4 6 9 6 7 29 36 45
23 20 19 15 10 9 8 3 2 5 3 5 5 5 3 7 4 6 5 5 7 3 6 1 5 1 3 3 2 4 5 4 5 2 7 4 4 13 10 14 10 9 22 36 45
20 18 21 16 14 9 9 3 7 7 8 2 4 3 7 8 5 6 5 5 7 2 3 5 10 9 6 6 6 6 8 6 7 4 8 0 9 7 8 10 16 18 25 32 43
15 18 20 20 17 14 9 6 9 8 6 7 3 4 5 5 5 6 9 6 9 13 10 6 7 2 0 1 2 4 5 0 2 2 3 5 8 7 5 9 4 11 25 34 43
17 15 22 20 20 17 4 18 8 10 5 3 12 10 8 7 7 7 8 5 6 14 1 5 6 1 2 2 4 3 5 4 2 3 7 6 10 14 10 11 6 8 20 30 40
15 8 9 18 21 15 10 9 8 17 7 8 8 5 8 8 8 7 7 4 6 4 3 5 4 3 4 8 10 2 3 2 3 5 6 4 11 7 8 9 11 15 26 32 41
22 4 12 27 15 9 14 8 11 9 34 12 5 10 10 10 8 7 12 11 20 14 10 7 4 5 13 1 2 2 10 13 6 7 3 3 23 9 8 10 13 19 28 34 41
16 17 9 38 9 13 4 5 18 10 13 13 12 11 8 10 8 11 16 9 21 12 12 9 5 2 5 2 3 6 6 6 1 1 18 9 21 6 4 1 16 17 26 33 38
15 4 15 32 28 12 13 12 13 19 21 11 7 9 5 12 13 9 6 5 13 10 8 21 8 9 18 9 6 6 10 12 16 9 24 27 34 38 25 19 9 20 27 32 39
25 13 18 8 20 23 9 7 22 14 15 27 14 25 18 14 18 22 17 1 3 6 5 9 17 8 22 19 5 7 16 14 18 28 18 40 31 33 30 27 17 29 31 32 38
22 14 12 16 13 26 25 35 30 18 13 14 23 12 24 28 25 19 21 8 14 2 8 4 8 6 17 7 7 15 29 18 26 30 26 31 40 40 38 39 33 24 26 30 34
39 35 21 15 17 15 28 37 33 20 23 29 20 19 23 31 36 37 17 17 13 12 11 9 7 5 23 4 5 16 15 27 30 31 20 28 39 38 26 16 11 18 28 33 38
Wind_Direction
5 6 9 11 14 14 12 12 16 17 22 25 30 59 64 67 65 64 61 59 52 42 36 25 14 359 4 40 45 45 61 145 169 150 192 153 132 159 148 144 164 194 177 204 176
352 355 357 1 5 5 4 3 5 8 10 18 23 37 71 60 67 71 67 55 46 37 28 14 5 0 28 20 20 74 96 218 223 173 176 167 185 184 166 136 91 134 164 165 171
332 337 342 347 351 356 357 357 354 356 359 2 14 19 45 232 305 144 71 51 40 30 22 3 3 15 30 357 9 120 151 186 235 174 180 183 189 194 156 229 201 183 173 173 178
316 321 325 329 334 340 345 347 347 344 348 347 355 4 312 247 235 197 127 38 26 27 16 17 14 16 54 7 358 353 360 223 187 204 180 205 188 205 208 228 248 210 189 182 186
311 314 315 317 319 323 329 334 337 333 336 337 335 330 257 255 253 208 216 258 357 14 19 22 16 7 66 318 335 55 312 295 219 214 222 226 229 219 219 240 225 189 186 188 189
307 310 312 313 315 316 319 322 324 321 323 323 322 303 253 243 245 220 225 243 290 353 18 29 11 2 87 9 39 312 288 279 261 239 230 210 249 199 225 195 180 184 188 191 197
301 305 309 310 312 314 317 318 316 311 311 309 306 283 262 264 238 225 226 221 239 317 3 19 8 17 348 5 344 325 334 327 238 208 231 191 284 233 221 184 182 187 194 195 197
297 302 306 308 310 312 315 316 314 308 301 300 285 267 250 243 230 229 221 221 230 274 319 335 0 92 78 16 14 21 43 348 303 157 292 153 262 265 225 194 196 196 199 198 198
294 297 302 306 309 311 315 315 311 302 296 279 264 235 246 236 229 218 217 225 239 253 266 263 324 80 81 74 18 15 285 260 313 205 122 186 272 280 209 203 197 205 204 197 195
285 292 299 303 306 310 316 321 309 291 271 258 244 239 233 220 211 215 219 232 246 234 244 195 94 58 27 79 261 263 290 263 240 313 191 259 269 233 210 209 210 209 207 201 202
277 285 293 300 305 311 320 339 315 280 249 233 229 245 228 219 223 224 228 236 229 201 194 73 75 237 230 193 156 181 224 246 248 251 219 237 248 270 227 219 219 216 208 206 207
270 275 283 292 298 307 320 334 328 304 299 269 259 251 246 242 248 227 210 195 181 194 131 34 229 215 135 159 162 194 256 266 285 260 192 264 249 272 247 227 217 213 209 208 208
270 270 275 285 291 295 296 302 311 322 278 275 247 243 225 216 221 201 192 192 177 169 188 179 218 128 156 197 192 213 197 242 240 338 280 315 263 237 301 249 241 226 222 217 209
272 274 275 280 294 280 265 287 311 330 40 271 232 223 191 173 245 188 190 189 188 199 167 232 218 170 202 239 155 265 213 253 289 346 247 43 290 261 255 270 226 222 211 214 206
267 270 271 274 257 275 274 292 308 324 313 261 199 176 179 188 150 193 188 196 183 181 132 244 165 184 211 219 161 225 129 184 206 237 331 219 247 261 52 268 261 212 215 211 210
258 261 261 259 258 258 260 266 276 54 248 255 156 175 156 214 210 152 175 181 109 122 329 248 200 178 216 111 168 117 33 69 57 88 286 227 192 233 191 219 257 209 216 209 213
252 250 252 243 236 236 232 213 33 177 279 224 214 169 198 196 220 181 169 178 179 149 225 247 218 225 179 149 92 102 72 320 320 337 238 134 242 251 253 246 237 223 207 216 208
261 244 246 235 228 217 193 70 214 220 225 65 129 118 189 162 230 188 167 223 235 109 119 215 275 175 183 204 179 168 164 167 250 238 288 223 246 248 232 278 280 267 235 214 203
256 242 241 231 213 207 187 211 198 188 209 170 93 186 228 229 196 158 205 205 205 172 188 177 266 124 173 95 123 165 179 260 19 110 337 235 285 287 271 281 282 220 203 203 204
251 245 241 235 206 202 190 233 211 196 159 150 209 185 203 209 177 191 181 197 234 196 135 212 288 151 121 112 32 144 158 88 14 274 263 261 274 246 246 261 177 216 210 207 207
237 250 237 224 192 189 219 219 217 229 195 183 212 242 212 191 200 207 216 241 209 145 115 137 167 199 123 208 171 116 219 226 157 175 207 305 268 214 204 218 197 215 214 209 206
215 233 208 184 189 210 227 190 201 211 228 245 214 215 203 193 211 225 214 218 183 155 167 200 164 211 215 357 357 248 198 185 207 234 242 145 261 171 195 229 185 214 215 219 214
198 210 210 182 218 220 255 262 223 187 196 210 224 199 191 206 236 199 230 201 181 159 173 177 215 284 316 36 354 220 206 218 357 116 235 216 261 70 13 205 208 218 217 222 218
193 205 196 203 225 229 224 235 228 224 235 220 226 183 170 225 222 255 227 215 206 209 213 165 196 184 236 223 128 185 215 207 213 238 256 241 262 268 266 259 231 229 234 227 222
193 215 188 195 224 223 201 237 232 226 211 210 243 224 215 236 228 236 245 318 215 218 186 178 240 198 249 255 180 229 234 193 208 230 233 265 261 268 270 270 257 255 233 215 208
205 214 199 227 198 214 222 237 237 232 191 216 229 210 224 231 220 238 226 202 225 70 170 181 248 173 257 224 206 263 257 241 233 248 247 255 266 267 268 282 276 255 216 202 202
224 227 236 223 219 202 219 232 236 232 247 236 226 228 235 231 233 243 242 240 217 192 184 164 171 151 251 208 79 270 255 239 248 246 235 247 250 263 272 258 239 231 213 205 202